Time,TemperatureF,DewpointF,PressureIn,WindDirection,WindDirectionDegrees,WindSpeedMPH,WindSpeedGustMPH,Humidity,HourlyPrecipIn,Conditions,Clouds,dailyrainin,SoftwareType,DateUTC
2013-06-12 00:01:00,63.3,60.3,29.82,WSW,238,0.0,0.0,90,0.00,,,0.00,WeatherCatV1.15B25,2013-06-12 04:01:00,
2013-06-12 00:02:00,63.3,60.3,29.82,WSW,238,0.0,0.0,90,0.00,,,0.00,WeatherCatV1.15B25,2013-06-12 04:02:00,
2013-06-12 00:03:00,63.3,60.3,29.82,WSW,238,0.0,0.0,90,0.00,,,0.00,WeatherCatV1.15B25,2013-06-12 04:03:00,
2013-06-12 00:04:00,63.3,60.3,29.82,WSW,238,0.0,0.0,90,0.00,,,0.00,WeatherCatV1.15B25,2013-06-12 04:04:00,
2013-06-12 00:09:00,63.3,60.6,29.83,WSW,238,0.0,0.0,91,0.00,,,0.00,WeatherCatV1.15B25,2013-06-12 04:09:00,
2013-06-12 00:12:00,63.4,60.7,29.83,WSW,238,0.0,0.0,91,0.00,,,0.00,WeatherCatV1.15B25,2013-06-12 04:12:00,
2013-06-12 00:17:00,63.4,60.7,29.83,WSW,238,0.0,0.0,91,0.00,,,0.00,WeatherCatV1.15B25,2013-06-12 04:17:00,
2013-06-12 00:22:00,63.5,60.8,29.82,WSW,238,0.0,0.0,91,0.00,,,0.00,WeatherCatV1.15B25,2013-06-12 04:22:00,
2013-06-12 00:27:00,63.5,60.8,29.82,WSW,238,0.0,0.0,91,0.00,,,0.00,WeatherCatV1.15B25,2013-06-12 04:27:00,
2013-06-12 00:32:00,63.5,60.8,29.82,WSW,238,0.0,0.0,91,0.00,,,0.00,WeatherCatV1.15B25,2013-06-12 04:32:00,
2013-06-12 00:37:00,63.3,60.6,29.82,WSW,238,0.0,0.0,91,0.00,,,0.00,WeatherCatV1.15B25,2013-06-12 04:37:00,
2013-06-12 00:42:00,63.3,60.6,29.83,WSW,238,0.0,0.0,91,0.00,,,0.00,WeatherCatV1.15B25,2013-06-12 04:42:00,
2013-06-12 00:47:00,63.2,60.5,29.82,WSW,238,0.0,0.0,91,0.00,,,0.00,WeatherCatV1.15B25,2013-06-12 04:47:00,
2013-06-12 00:52:00,63.2,60.5,29.82,WSW,238,0.0,0.0,91,0.00,,,0.00,WeatherCatV1.15B25,2013-06-12 04:52:00,
2013-06-12 00:57:00,63.1,60.4,29.82,WSW,238,0.0,0.0,91,0.00,,,0.00,WeatherCatV1.15B25,2013-06-12 04:57:00,
2013-06-12 01:02:00,63.1,60.4,29.82,WSW,238,0.0,0.0,91,0.00,,,0.00,WeatherCatV1.15B25,2013-06-12 05:02:00,
2013-06-12 01:07:00,63.0,60.3,29.82,WSW,238,0.0,0.0,91,0.00,,,0.00,WeatherCatV1.15B25,2013-06-12 05:07:00,
2013-06-12 01:12:00,63.0,60.3,29.83,WSW,238,0.0,0.0,91,0.00,,,0.00,WeatherCatV1.15B25,2013-06-12 05:12:00,
2013-06-12 01:17:00,62.9,60.2,29.83,WSW,238,0.0,0.0,91,0.00,,,0.00,WeatherCatV1.15B25,2013-06-12 05:17:00,
2013-06-12 01:22:00,62.8,60.1,29.83,WSW,238,0.0,0.0,91,0.00,,,0.00,WeatherCatV1.15B25,2013-06-12 05:22:00,
2013-06-12 01:27:00,62.7,60.0,29.83,WSW,238,0.0,0.0,91,0.00,,,0.00,WeatherCatV1.15B25,2013-06-12 05:27:00,
2013-06-12 01:32:00,62.7,60.0,29.83,WSW,238,0.0,0.0,91,0.00,,,0.00,WeatherCatV1.15B25,2013-06-12 05:32:00,
2013-06-12 01:37:00,62.7,60.0,29.83,WSW,238,0.0,0.0,91,0.00,,,0.00,WeatherCatV1.15B25,2013-06-12 05:37:00,
2013-06-12 01:42:00,62.7,60.0,29.82,WSW,238,0.0,0.0,91,0.00,,,0.00,WeatherCatV1.15B25,2013-06-12 05:42:00,
2013-06-12 01:47:00,63.0,60.6,29.83,North,0,3.0,3.0,92,0.00,,,0.00,WeatherCatV1.15B25,2013-06-12 05:47:00,
2013-06-12 01:52:00,63.6,61.2,29.83,ENE,74,0.0,1.0,92,0.00,,,0.00,WeatherCatV1.15B25,2013-06-12 05:52:00,
2013-06-12 01:57:00,63.9,61.5,29.82,ENE,74,0.0,0.0,92,0.00,,,0.00,WeatherCatV1.15B25,2013-06-12 05:57:00,
2013-06-12 02:02:00,64.1,61.7,29.82,North,10,0.0,2.0,92,0.00,,,0.00,WeatherCatV1.15B25,2013-06-12 06:02:00,
2013-06-12 02:07:00,64.2,61.8,29.82,North,10,0.0,0.0,92,0.00,,,0.00,WeatherCatV1.15B25,2013-06-12 06:07:00,
2013-06-12 02:12:00,64.1,61.7,29.82,North,10,0.0,0.0,92,0.00,,,0.00,WeatherCatV1.15B25,2013-06-12 06:12:00,
2013-06-12 02:17:00,64.1,61.7,29.82,North,10,0.0,0.0,92,0.00,,,0.00,WeatherCatV1.15B25,2013-06-12 06:17:00,
2013-06-12 02:22:00,64.1,61.4,29.82,North,10,0.0,0.0,91,0.00,,,0.00,WeatherCatV1.15B25,2013-06-12 06:22:00,
2013-06-12 02:27:00,64.0,61.3,29.82,North,10,0.0,0.0,91,0.00,,,0.00,WeatherCatV1.15B25,2013-06-12 06:27:00,
2013-06-12 02:32:00,64.0,61.3,29.82,North,10,0.0,0.0,91,0.00,,,0.00,WeatherCatV1.15B25,2013-06-12 06:32:00,
2013-06-12 02:37:00,63.9,61.2,29.83,North,10,0.0,0.0,91,0.00,,,0.00,WeatherCatV1.15B25,2013-06-12 06:37:00,
2013-06-12 02:42:00,63.7,61.0,29.82,North,10,0.0,0.0,91,0.00,,,0.00,WeatherCatV1.15B25,2013-06-12 06:42:00,
2013-06-12 02:47:00,63.7,61.0,29.82,North,10,0.0,0.0,91,0.00,,,0.00,WeatherCatV1.15B25,2013-06-12 06:47:00,
2013-06-12 02:52:00,63.6,60.9,29.82,North,10,0.0,0.0,91,0.00,,,0.00,WeatherCatV1.15B25,2013-06-12 06:52:00,
2013-06-12 02:57:00,63.5,60.8,29.82,North,10,0.0,0.0,91,0.00,,,0.00,WeatherCatV1.15B25,2013-06-12 06:57:00,
2013-06-12 03:02:00,63.5,60.8,29.82,North,10,0.0,0.0,91,0.00,,,0.00,WeatherCatV1.15B25,2013-06-12 07:02:00,
2013-06-12 03:07:00,63.4,60.7,29.82,North,10,0.0,0.0,91,0.00,,,0.00,WeatherCatV1.15B25,2013-06-12 07:07:00,
2013-06-12 03:12:00,63.4,60.7,29.82,North,10,0.0,0.0,91,0.00,,,0.00,WeatherCatV1.15B25,2013-06-12 07:12:00,
2013-06-12 03:17:00,63.2,60.5,29.82,North,10,0.0,0.0,91,0.00,,,0.00,WeatherCatV1.15B25,2013-06-12 07:17:00,
2013-06-12 03:22:00,63.0,60.3,29.82,North,10,0.0,0.0,91,0.00,,,0.00,WeatherCatV1.15B25,2013-06-12 07:22:00,
2013-06-12 03:27:00,62.8,60.1,29.82,North,10,0.0,0.0,91,0.00,,,0.00,WeatherCatV1.15B25,2013-06-12 07:27:00,
2013-06-12 03:32:00,62.7,60.0,29.82,North,10,0.0,0.0,91,0.00,,,0.00,WeatherCatV1.15B25,2013-06-12 07:32:00,
2013-06-12 03:37:00,62.6,59.9,29.82,North,10,0.0,0.0,91,0.00,,,0.00,WeatherCatV1.15B25,2013-06-12 07:37:00,
2013-06-12 03:42:00,62.6,59.9,29.82,North,10,0.0,0.0,91,0.00,,,0.00,WeatherCatV1.15B25,2013-06-12 07:42:00,
2013-06-12 03:47:00,62.6,59.9,29.82,North,10,0.0,0.0,91,0.00,,,0.00,WeatherCatV1.15B25,2013-06-12 07:47:00,
2013-06-12 03:52:00,62.6,59.9,29.82,North,10,0.0,0.0,91,0.00,,,0.00,WeatherCatV1.15B25,2013-06-12 07:52:00,
2013-06-12 03:57:00,62.7,60.3,29.82,North,5,0.0,0.0,92,0.00,,,0.00,WeatherCatV1.15B25,2013-06-12 07:57:00,
2013-06-12 04:02:00,62.8,60.4,29.81,North,0,0.0,0.0,92,0.00,,,0.00,WeatherCatV1.15B25,2013-06-12 08:02:00,
2013-06-12 04:07:00,62.8,60.4,29.81,North,5,0.0,0.0,92,0.00,,,0.00,WeatherCatV1.15B25,2013-06-12 08:07:00,
2013-06-12 04:13:00,62.9,60.5,29.81,North,5,0.0,0.0,92,0.00,,,0.00,WeatherCatV1.15B25,2013-06-12 08:13:00,
2013-06-12 04:18:00,62.9,60.5,29.81,North,5,0.0,0.0,92,0.00,,,0.00,WeatherCatV1.15B25,2013-06-12 08:18:00,
2013-06-12 04:23:00,62.9,60.5,29.82,North,5,0.0,0.0,92,0.00,,,0.00,WeatherCatV1.15B25,2013-06-12 08:23:00,
2013-06-12 04:28:00,63.0,60.6,29.82,North,0,0.0,0.0,92,0.00,,,0.00,WeatherCatV1.15B25,2013-06-12 08:28:00,
2013-06-12 04:33:00,63.0,60.6,29.82,North,5,0.0,0.0,92,0.00,,,0.00,WeatherCatV1.15B25,2013-06-12 08:33:00,
2013-06-12 04:38:00,63.0,60.6,29.82,North,5,0.0,0.0,92,0.00,,,0.00,WeatherCatV1.15B25,2013-06-12 08:38:00,
2013-06-12 04:43:00,63.0,60.6,29.83,North,0,0.0,0.0,92,0.00,,,0.00,WeatherCatV1.15B25,2013-06-12 08:43:00,
2013-06-12 04:48:00,63.0,60.6,29.82,North,5,0.0,0.0,92,0.00,,,0.00,WeatherCatV1.15B25,2013-06-12 08:48:00,
2013-06-12 04:53:00,63.0,60.6,29.82,North,0,0.0,0.0,92,0.00,,,0.00,WeatherCatV1.15B25,2013-06-12 08:53:00,
2013-06-12 04:58:00,63.0,60.6,29.82,North,5,0.0,0.0,92,0.00,,,0.00,WeatherCatV1.15B25,2013-06-12 08:58:00,
2013-06-12 05:03:00,63.0,60.6,29.83,North,0,0.0,0.0,92,0.00,,,0.00,WeatherCatV1.15B25,2013-06-12 09:03:00,
2013-06-12 05:08:00,63.0,60.6,29.83,North,5,0.0,0.0,92,0.00,,,0.00,WeatherCatV1.15B25,2013-06-12 09:08:00,
2013-06-12 05:13:00,63.0,60.6,29.83,North,5,0.0,0.0,92,0.00,,,0.00,WeatherCatV1.15B25,2013-06-12 09:13:00,
2013-06-12 05:18:00,62.9,60.5,29.83,North,0,0.0,0.0,92,0.00,,,0.00,WeatherCatV1.15B25,2013-06-12 09:18:00,
2013-06-12 05:23:00,62.9,60.5,29.83,North,5,0.0,0.0,92,0.00,,,0.00,WeatherCatV1.15B25,2013-06-12 09:23:00,
2013-06-12 05:28:00,62.8,60.4,29.83,North,5,0.0,0.0,92,0.00,,,0.00,WeatherCatV1.15B25,2013-06-12 09:28:00,
2013-06-12 05:33:00,62.7,60.3,29.83,North,5,0.0,0.0,92,0.00,,,0.00,WeatherCatV1.15B25,2013-06-12 09:33:00,
2013-06-12 05:38:00,62.7,60.3,29.83,North,0,0.0,0.0,92,0.00,,,0.00,WeatherCatV1.15B25,2013-06-12 09:38:00,
2013-06-12 05:43:00,62.7,60.3,29.83,North,5,0.0,0.0,92,0.00,,,0.00,WeatherCatV1.15B25,2013-06-12 09:43:00,
2013-06-12 05:48:00,62.6,60.2,29.83,North,5,0.0,0.0,92,0.00,,,0.00,WeatherCatV1.15B25,2013-06-12 09:48:00,
2013-06-12 05:53:00,62.6,60.2,29.83,North,0,0.0,0.0,92,0.00,,,0.00,WeatherCatV1.15B25,2013-06-12 09:53:00,
2013-06-12 05:58:00,62.5,60.1,29.84,North,5,0.0,0.0,92,0.00,,,0.00,WeatherCatV1.15B25,2013-06-12 09:58:00,
2013-06-12 06:03:00,62.4,60.0,29.84,North,0,0.0,0.0,92,0.00,,,0.00,WeatherCatV1.15B25,2013-06-12 10:03:00,
2013-06-12 06:09:00,62.3,59.9,29.84,North,5,0.0,0.0,92,0.00,,,0.00,WeatherCatV1.15B25,2013-06-12 10:09:00,
2013-06-12 06:14:00,62.3,59.9,29.84,North,5,0.0,0.0,92,0.00,,,0.00,WeatherCatV1.15B25,2013-06-12 10:14:00,
2013-06-12 06:19:00,62.3,59.9,29.84,North,0,0.0,0.0,92,0.00,,,0.00,WeatherCatV1.15B25,2013-06-12 10:19:00,
2013-06-12 06:24:00,62.3,59.9,29.85,North,5,0.0,0.0,92,0.00,,,0.00,WeatherCatV1.15B25,2013-06-12 10:24:00,
2013-06-12 06:29:00,62.2,59.8,29.85,North,5,0.0,0.0,92,0.00,,,0.00,WeatherCatV1.15B25,2013-06-12 10:29:00,
2013-06-12 06:34:00,62.2,59.8,29.85,North,0,0.0,0.0,92,0.00,,,0.00,WeatherCatV1.15B25,2013-06-12 10:34:00,
2013-06-12 06:39:00,62.2,59.8,29.85,North,0,0.0,0.0,92,0.00,,,0.00,WeatherCatV1.15B25,2013-06-12 10:39:00,
2013-06-12 06:44:00,62.3,59.9,29.86,North,5,0.0,0.0,92,0.00,,,0.00,WeatherCatV1.15B25,2013-06-12 10:44:00,
2013-06-12 06:49:00,62.4,60.0,29.86,North,5,0.0,0.0,92,0.00,,,0.00,WeatherCatV1.15B25,2013-06-12 10:49:00,
2013-06-12 06:54:00,62.5,60.1,29.86,North,5,0.0,0.0,92,0.00,,,0.00,WeatherCatV1.15B25,2013-06-12 10:54:00,
2013-06-12 06:59:00,62.7,60.3,29.86,North,0,0.0,0.0,92,0.00,,,0.00,WeatherCatV1.15B25,2013-06-12 10:59:00,
2013-06-12 07:04:00,62.9,60.5,29.86,North,5,0.0,0.0,92,0.00,,,0.00,WeatherCatV1.15B25,2013-06-12 11:04:00,
2013-06-12 07:09:00,63.1,60.7,29.85,North,5,0.0,0.0,92,0.00,,,0.00,WeatherCatV1.15B25,2013-06-12 11:09:00,
2013-06-12 07:14:00,63.4,61.0,29.85,North,0,0.0,0.0,92,0.00,,,0.00,WeatherCatV1.15B25,2013-06-12 11:14:00,
2013-06-12 07:19:00,63.6,61.2,29.85,North,0,0.0,0.0,92,0.00,,,0.00,WeatherCatV1.15B25,2013-06-12 11:19:00,
2013-06-12 07:24:00,63.8,61.4,29.86,North,5,0.0,0.0,92,0.00,,,0.00,WeatherCatV1.15B25,2013-06-12 11:24:00,
2013-06-12 07:29:00,64.0,61.6,29.86,North,5,0.0,0.0,92,0.00,,,0.00,WeatherCatV1.15B25,2013-06-12 11:29:00,
2013-06-12 07:34:00,64.2,61.8,29.86,North,0,0.0,0.0,92,0.00,,,0.00,WeatherCatV1.15B25,2013-06-12 11:34:00,
2013-06-12 07:39:00,64.4,62.0,29.86,North,5,0.0,0.0,92,0.00,,,0.00,WeatherCatV1.15B25,2013-06-12 11:39:00,
2013-06-12 07:44:00,64.7,62.3,29.86,North,5,0.0,0.0,92,0.00,,,0.00,WeatherCatV1.15B25,2013-06-12 11:44:00,
2013-06-12 07:49:00,64.9,62.5,29.86,North,0,0.0,0.0,92,0.00,,,0.00,WeatherCatV1.15B25,2013-06-12 11:49:00,
2013-06-12 07:54:00,65.3,62.9,29.87,North,0,0.0,0.0,92,0.00,,,0.00,WeatherCatV1.15B25,2013-06-12 11:54:00,
2013-06-12 07:59:00,65.6,63.2,29.86,North,5,0.0,0.0,92,0.00,,,0.00,WeatherCatV1.15B25,2013-06-12 11:59:00,
2013-06-12 08:04:00,66.2,63.8,29.86,North,5,0.0,0.0,92,0.00,,,0.00,WeatherCatV1.15B25,2013-06-12 12:04:00,
2013-06-12 08:09:00,67.1,64.7,29.86,North,5,0.0,0.0,92,0.00,,,0.00,WeatherCatV1.15B25,2013-06-12 12:09:00,
2013-06-12 08:14:00,68.2,65.5,29.87,North,5,0.0,0.0,91,0.00,,,0.00,WeatherCatV1.15B25,2013-06-12 12:14:00,
2013-06-12 08:19:00,69.3,66.6,29.87,North,5,0.0,0.0,91,0.00,,,0.00,WeatherCatV1.15B25,2013-06-12 12:19:00,
2013-06-12 08:24:00,70.2,66.5,29.87,North,0,0.0,0.0,88,0.00,,,0.00,WeatherCatV1.15B25,2013-06-12 12:24:00,
2013-06-12 08:29:00,70.9,66.5,29.86,North,5,0.0,0.0,86,0.00,,,0.00,WeatherCatV1.15B25,2013-06-12 12:29:00,
2013-06-12 08:34:00,72.1,67.0,29.86,North,0,0.0,0.0,84,0.00,,,0.00,WeatherCatV1.15B25,2013-06-12 12:34:00,
2013-06-12 08:39:00,72.2,64.2,29.87,NNW,336,4.0,7.0,76,0.00,,,0.00,WeatherCatV1.15B25,2013-06-12 12:39:00,
2013-06-12 08:44:00,70.3,62.4,29.87,NNW,338,2.0,5.0,76,0.00,,,0.00,WeatherCatV1.15B25,2013-06-12 12:44:00,
2013-06-12 08:49:00,68.9,62.1,29.87,North,349,0.0,4.0,79,0.00,,,0.00,WeatherCatV1.15B25,2013-06-12 12:49:00,
2013-06-12 08:54:00,68.1,61.7,29.87,North,0,0.0,3.0,80,0.00,,,0.00,WeatherCatV1.15B25,2013-06-12 12:54:00,
2013-06-12 08:59:00,67.6,61.6,29.87,NNE,28,1.0,6.0,81,0.00,,,0.00,WeatherCatV1.15B25,2013-06-12 12:59:00,
2013-06-12 09:04:00,67.4,61.7,29.87,NNW,348,3.0,4.0,82,0.00,,,0.00,WeatherCatV1.15B25,2013-06-12 13:04:00,
2013-06-12 09:09:00,67.2,61.9,29.86,North,355,0.0,2.0,83,0.00,,,0.00,WeatherCatV1.15B25,2013-06-12 13:09:00,
2013-06-12 09:14:00,67.3,62.0,29.86,ENE,74,0.0,2.0,83,0.00,,,0.00,WeatherCatV1.15B25,2013-06-12 13:14:00,
2013-06-12 09:19:00,67.5,62.1,29.86,NNE,25,0.0,2.0,83,0.00,,,0.00,WeatherCatV1.15B25,2013-06-12 13:19:00,
2013-06-12 09:24:00,67.9,62.5,29.87,NNE,18,0.0,1.0,83,0.00,,,0.00,WeatherCatV1.15B25,2013-06-12 13:24:00,
2013-06-12 09:29:00,68.4,63.0,29.87,NNE,23,0.0,0.0,83,0.00,,,0.00,WeatherCatV1.15B25,2013-06-12 13:29:00,
2013-06-12 09:34:00,68.9,63.2,29.88,NNE,17,0.0,0.0,82,0.00,,,0.00,WeatherCatV1.15B25,2013-06-12 13:34:00,
2013-06-12 09:39:00,69.2,63.1,29.88,North,355,2.0,3.0,81,0.00,,,0.00,WeatherCatV1.15B25,2013-06-12 13:39:00,
2013-06-12 09:44:00,69.5,63.4,29.87,North,11,0.0,4.0,81,0.00,,,0.00,WeatherCatV1.15B25,2013-06-12 13:44:00,
2013-06-12 09:49:00,69.9,63.8,29.87,NNE,32,1.0,1.0,81,0.00,,,0.00,WeatherCatV1.15B25,2013-06-12 13:49:00,
2013-06-12 09:54:00,70.7,64.6,29.87,NNE,20,0.0,0.0,81,0.00,,,0.00,WeatherCatV1.15B25,2013-06-12 13:54:00,
2013-06-12 09:59:00,71.2,64.3,29.86,North,0,3.0,3.0,79,0.00,,,0.00,WeatherCatV1.15B25,2013-06-12 13:59:00,
2013-06-12 10:04:00,71.5,64.3,29.86,North,355,2.0,3.0,78,0.00,,,0.00,WeatherCatV1.15B25,2013-06-12 14:04:00,
2013-06-12 10:09:00,71.5,63.9,29.86,North,355,1.0,5.0,77,0.00,,,0.00,WeatherCatV1.15B25,2013-06-12 14:09:00,
2013-06-12 10:14:00,71.5,63.9,29.86,NNW,348,3.0,4.0,77,0.00,,,0.00,WeatherCatV1.15B25,2013-06-12 14:14:00,
2013-06-12 10:19:00,70.5,62.9,29.86,NNW,346,0.0,5.0,77,0.00,,,0.00,WeatherCatV1.15B25,2013-06-12 14:19:00,
2013-06-12 10:24:00,70.2,63.4,29.87,North,355,0.0,4.0,79,0.00,,,0.00,WeatherCatV1.15B25,2013-06-12 14:24:00,
2013-06-12 10:29:00,69.8,62.6,29.87,North,5,6.0,6.0,78,0.00,,,0.00,WeatherCatV1.15B25,2013-06-12 14:29:00,
2013-06-12 10:34:00,69.5,62.7,29.87,NNE,13,1.0,4.0,79,0.00,,,0.00,WeatherCatV1.15B25,2013-06-12 14:34:00,
2013-06-12 10:39:00,69.8,63.0,29.87,NE,48,0.0,5.0,79,0.00,,,0.00,WeatherCatV1.15B25,2013-06-12 14:39:00,
2013-06-12 10:44:00,70.2,63.0,29.88,ENE,64,0.0,5.0,78,0.00,,,0.00,WeatherCatV1.15B25,2013-06-12 14:44:00,
2013-06-12 10:49:00,70.9,63.7,29.88,NNW,340,2.0,4.0,78,0.00,,,0.00,WeatherCatV1.15B25,2013-06-12 14:49:00,
2013-06-12 10:54:00,71.5,63.1,29.88,NNW,340,2.0,5.0,75,0.00,,,0.00,WeatherCatV1.15B25,2013-06-12 14:54:00,
2013-06-12 10:59:00,71.7,62.6,29.88,North,0,6.0,7.0,73,0.00,,,0.00,WeatherCatV1.15B25,2013-06-12 14:59:00,
2013-06-12 11:04:00,71.7,62.6,29.88,East,79,2.0,4.0,73,0.00,,,0.00,WeatherCatV1.15B25,2013-06-12 15:04:00,
2013-06-12 11:09:00,71.5,62.8,29.88,NNE,18,0.0,4.0,74,0.00,,,0.00,WeatherCatV1.15B25,2013-06-12 15:09:00,
2013-06-12 11:14:00,71.2,62.5,29.89,NNE,30,2.0,6.0,74,0.00,,,0.00,WeatherCatV1.15B25,2013-06-12 15:14:00,
2013-06-12 11:19:00,71.0,62.7,29.89,North,355,3.0,5.0,75,0.00,,,0.00,WeatherCatV1.15B25,2013-06-12 15:19:00,
2013-06-12 11:24:00,71.2,63.6,29.89,North,11,0.0,1.0,77,0.00,,,0.00,WeatherCatV1.15B25,2013-06-12 15:24:00,
2013-06-12 11:29:00,71.7,63.3,29.88,NNE,33,0.0,5.0,75,0.00,,,0.00,WeatherCatV1.15B25,2013-06-12 15:29:00,
2013-06-12 11:34:00,71.7,63.3,29.88,North,0,2.0,3.0,75,0.00,,,0.00,WeatherCatV1.15B25,2013-06-12 15:34:00,
2013-06-12 11:39:00,71.2,62.5,29.89,NE,38,0.0,3.0,74,0.00,,,0.00,WeatherCatV1.15B25,2013-06-12 15:39:00,
2013-06-12 11:44:00,70.6,61.9,29.88,North,350,2.0,5.0,74,0.00,,,0.00,WeatherCatV1.15B25,2013-06-12 15:44:00,
2013-06-12 11:49:00,70.4,62.5,29.89,NNW,344,0.0,2.0,76,0.00,,,0.00,WeatherCatV1.15B25,2013-06-12 15:49:00,
2013-06-12 11:54:00,70.1,61.8,29.88,North,355,1.0,4.0,75,0.00,,,0.00,WeatherCatV1.15B25,2013-06-12 15:54:00,
2013-06-12 11:59:00,69.9,62.0,29.88,NNW,335,0.0,2.0,76,0.00,,,0.00,WeatherCatV1.15B25,2013-06-12 15:59:00,
2013-06-12 12:04:00,69.7,62.2,29.89,NNW,348,0.0,5.0,77,0.00,,,0.00,WeatherCatV1.15B25,2013-06-12 16:04:00,
2013-06-12 12:09:00,69.4,61.9,29.89,NNW,348,2.0,4.0,77,0.00,,,0.00,WeatherCatV1.15B25,2013-06-12 16:09:00,
2013-06-12 12:14:00,69.1,61.9,29.89,NNW,337,2.0,4.0,78,0.00,,,0.00,WeatherCatV1.15B25,2013-06-12 16:14:00,
2013-06-12 12:19:00,68.8,61.7,29.89,North,5,3.0,6.0,78,0.00,,,0.00,WeatherCatV1.15B25,2013-06-12 16:19:00,
2013-06-12 12:24:00,68.8,62.4,29.89,North,9,3.0,3.0,80,0.00,,,0.00,WeatherCatV1.15B25,2013-06-12 16:24:00,
2013-06-12 12:29:00,68.8,62.0,29.89,NNW,342,0.0,1.0,79,0.00,,,0.00,WeatherCatV1.15B25,2013-06-12 16:29:00,
2013-06-12 12:34:00,68.8,62.0,29.89,North,0,7.0,7.0,79,0.00,,,0.00,WeatherCatV1.15B25,2013-06-12 16:34:00,
2013-06-12 12:39:00,68.8,62.4,29.88,NNE,19,0.0,5.0,80,0.00,,,0.00,WeatherCatV1.15B25,2013-06-12 16:39:00,
2013-06-12 12:44:00,69.4,63.0,29.88,North,355,0.0,3.0,80,0.00,,,0.00,WeatherCatV1.15B25,2013-06-12 16:44:00,
2013-06-12 12:49:00,70.0,63.2,29.88,North,9,0.0,1.0,79,0.00,,,0.00,WeatherCatV1.15B25,2013-06-12 16:49:00,
2013-06-12 12:54:00,70.3,62.7,29.88,North,9,2.0,5.0,77,0.00,,,0.00,WeatherCatV1.15B25,2013-06-12 16:54:00,
2013-06-12 12:59:00,69.9,62.0,29.88,North,355,3.0,3.0,76,0.00,,,0.00,WeatherCatV1.15B25,2013-06-12 16:59:00,
2013-06-12 13:04:00,69.6,62.1,29.88,NNE,13,3.0,5.0,77,0.00,,,0.00,WeatherCatV1.15B25,2013-06-12 17:04:00,
2013-06-12 13:09:00,69.3,61.8,29.88,North,355,0.0,3.0,77,0.00,,,0.00,WeatherCatV1.15B25,2013-06-12 17:09:00,
2013-06-12 13:14:00,69.4,61.9,29.88,NNW,340,2.0,5.0,77,0.00,,,0.00,WeatherCatV1.15B25,2013-06-12 17:14:00,
2013-06-12 13:19:00,69.4,61.5,29.89,North,0,2.0,5.0,76,0.00,,,0.00,WeatherCatV1.15B25,2013-06-12 17:19:00,
2013-06-12 13:24:00,69.5,62.0,29.88,North,350,0.0,1.0,77,0.00,,,0.00,WeatherCatV1.15B25,2013-06-12 17:24:00,
2013-06-12 13:29:00,69.8,62.3,29.88,NE,34,0.0,1.0,77,0.00,,,0.00,WeatherCatV1.15B25,2013-06-12 17:29:00,
2013-06-12 13:34:00,70.2,62.6,29.88,NNW,344,2.0,3.0,77,0.00,,,0.00,WeatherCatV1.15B25,2013-06-12 17:34:00,
2013-06-12 13:39:00,70.2,62.3,29.87,NNW,343,0.0,4.0,76,0.00,,,0.00,WeatherCatV1.15B25,2013-06-12 17:39:00,
2013-06-12 13:44:00,70.4,62.8,29.87,NNW,343,0.0,0.0,77,0.00,,,0.00,WeatherCatV1.15B25,2013-06-12 17:44:00,
2013-06-12 13:49:00,70.7,62.8,29.87,North,0,0.0,0.0,76,0.00,,,0.00,WeatherCatV1.15B25,2013-06-12 17:49:00,
2013-06-12 13:54:00,71.2,63.6,29.86,North,5,2.0,2.0,77,0.00,,,0.00,WeatherCatV1.15B25,2013-06-12 17:54:00,
2013-06-12 13:59:00,71.3,62.6,29.86,NNE,14,3.0,3.0,74,0.00,,,0.00,WeatherCatV1.15B25,2013-06-12 17:59:00,
2013-06-12 14:04:00,71.6,62.5,29.86,NNE,30,2.0,3.0,73,0.00,,,0.00,WeatherCatV1.15B25,2013-06-12 18:04:00,
2013-06-12 14:09:00,71.8,62.7,29.85,North,5,0.0,2.0,73,0.00,,,0.00,WeatherCatV1.15B25,2013-06-12 18:09:00,
2013-06-12 14:14:00,72.0,63.2,29.84,North,5,0.0,0.0,74,0.00,,,0.00,WeatherCatV1.15B25,2013-06-12 18:14:00,
2013-06-12 14:19:00,72.3,63.1,29.84,North,9,0.0,1.0,73,0.00,,,0.00,WeatherCatV1.15B25,2013-06-12 18:19:00,
2013-06-12 14:24:00,72.6,63.4,29.83,North,5,0.0,0.0,73,0.00,,,0.00,WeatherCatV1.15B25,2013-06-12 18:24:00,
2013-06-12 14:29:00,73.1,64.7,29.82,North,5,0.0,0.0,75,0.00,,,0.00,WeatherCatV1.15B25,2013-06-12 18:29:00,
2013-06-12 14:34:00,73.6,64.8,29.82,NNW,344,2.0,2.0,74,0.00,,,0.00,WeatherCatV1.15B25,2013-06-12 18:34:00,
2013-06-12 14:39:00,73.8,63.8,29.82,NNE,29,0.0,0.0,71,0.00,,,0.00,WeatherCatV1.15B25,2013-06-12 18:39:00,
2013-06-12 14:44:00,74.1,64.9,29.81,NNE,30,0.0,0.0,73,0.00,,,0.00,WeatherCatV1.15B25,2013-06-12 18:44:00,
2013-06-12 14:49:00,74.6,64.6,29.80,North,9,1.0,2.0,71,0.00,,,0.00,WeatherCatV1.15B25,2013-06-12 18:49:00,
2013-06-12 14:54:00,74.8,65.2,29.80,NNE,13,0.0,1.0,72,0.00,,,0.00,WeatherCatV1.15B25,2013-06-12 18:54:00,
2013-06-12 14:59:00,75.1,66.2,29.79,North,0,3.0,3.0,74,0.00,,,0.00,WeatherCatV1.15B25,2013-06-12 18:59:00,
2013-06-12 15:04:00,75.1,65.4,29.79,NNE,22,2.0,3.0,72,0.00,,,0.00,WeatherCatV1.15B25,2013-06-12 19:04:00,
2013-06-12 15:09:00,75.4,66.5,29.78,NNE,22,0.0,1.0,74,0.00,,,0.00,WeatherCatV1.15B25,2013-06-12 19:09:00,
2013-06-12 15:14:00,75.7,67.2,29.77,SSE,153,1.0,2.0,75,0.00,,,0.00,WeatherCatV1.15B25,2013-06-12 19:14:00,
2013-06-12 15:19:00,75.8,66.9,29.77,SSE,153,0.0,0.0,74,0.00,,,0.00,WeatherCatV1.15B25,2013-06-12 19:19:00,
2013-06-12 15:24:00,75.9,67.4,29.77,East,96,0.0,1.0,75,0.00,,,0.00,WeatherCatV1.15B25,2013-06-12 19:24:00,
2013-06-12 15:29:00,75.8,66.9,29.77,ENE,65,0.0,2.0,74,0.00,,,0.00,WeatherCatV1.15B25,2013-06-12 19:29:00,
2013-06-12 15:34:00,75.9,67.4,29.77,ENE,65,0.0,2.0,75,0.00,,,0.00,WeatherCatV1.15B25,2013-06-12 19:34:00,
2013-06-12 15:39:00,76.0,67.5,29.77,NNE,17,0.0,0.0,75,0.00,,,0.00,WeatherCatV1.15B25,2013-06-12 19:39:00,
2013-06-12 15:44:00,75.8,66.1,29.77,NNE,20,0.0,0.0,72,0.00,,,0.00,WeatherCatV1.15B25,2013-06-12 19:44:00,
2013-06-12 15:49:00,75.3,66.0,29.79,NNE,19,0.0,0.0,73,0.00,,,0.00,WeatherCatV1.15B25,2013-06-12 19:49:00,
2013-06-12 15:54:00,74.4,65.6,29.81,West,272,0.0,2.0,74,0.00,,,0.00,WeatherCatV1.15B25,2013-06-12 19:54:00,
2013-06-12 15:59:00,73.5,64.3,29.82,West,273,0.0,2.0,73,0.00,,,0.00,WeatherCatV1.15B25,2013-06-12 19:59:00,
2013-06-12 16:04:00,73.2,65.2,29.83,WSW,254,3.0,3.0,76,0.00,,,0.00,WeatherCatV1.15B25,2013-06-12 20:04:00,
2013-06-12 16:09:00,73.1,64.3,29.82,WSW,244,1.0,4.0,74,0.00,,,0.00,WeatherCatV1.15B25,2013-06-12 20:09:00,
2013-06-12 16:14:00,73.2,64.8,29.82,West,267,0.0,2.0,75,0.00,,,0.00,WeatherCatV1.15B25,2013-06-12 20:14:00,
2013-06-12 16:19:00,73.0,63.4,29.82,North,355,0.0,0.0,72,0.00,,,0.00,WeatherCatV1.15B25,2013-06-12 20:19:00,
2013-06-12 16:24:00,72.9,63.7,29.81,North,355,1.0,2.0,73,0.00,,,0.00,WeatherCatV1.15B25,2013-06-12 20:24:00,
2013-06-12 16:29:00,72.4,62.8,29.80,North,0,0.0,2.0,72,0.00,,,0.00,WeatherCatV1.15B25,2013-06-12 20:29:00,
2013-06-12 16:34:00,72.0,62.9,29.79,ENE,68,7.0,7.0,73,0.00,,,0.00,WeatherCatV1.15B25,2013-06-12 20:34:00,
2013-06-12 16:39:00,70.7,60.8,29.81,NE,46,1.0,2.0,71,0.00,,,0.00,WeatherCatV1.15B25,2013-06-12 20:39:00,
2013-06-12 16:44:00,70.0,60.5,29.82,North,5,0.0,4.0,72,0.00,,,0.00,WeatherCatV1.15B25,2013-06-12 20:44:00,
2013-06-12 16:49:00,69.5,61.2,29.82,NNE,15,0.0,0.0,75,0.00,,,0.00,WeatherCatV1.15B25,2013-06-12 20:49:00,
2013-06-12 16:54:00,69.2,60.5,29.81,North,5,2.0,2.0,74,0.00,,,0.00,WeatherCatV1.15B25,2013-06-12 20:54:00,
2013-06-12 16:59:00,68.8,60.2,29.82,North,9,1.0,2.0,74,0.00,,,0.00,WeatherCatV1.15B25,2013-06-12 20:59:00,
2013-06-12 17:04:00,68.6,60.3,29.83,North,9,0.0,0.0,75,0.00,,,0.00,WeatherCatV1.15B25,2013-06-12 21:04:00,
2013-06-12 17:09:00,68.5,60.6,29.83,North,0,0.0,0.0,76,0.00,,,0.00,WeatherCatV1.15B25,2013-06-12 21:09:00,
2013-06-12 17:14:00,68.4,60.5,29.83,North,9,0.0,0.0,76,0.00,,,0.00,WeatherCatV1.15B25,2013-06-12 21:14:00,
2013-06-12 17:19:00,68.1,60.2,29.83,NE,36,0.0,0.0,76,0.00,,,0.00,WeatherCatV1.15B25,2013-06-12 21:19:00,
2013-06-12 17:24:00,67.5,60.0,29.83,NNE,12,1.0,4.0,77,0.00,,,0.00,WeatherCatV1.15B25,2013-06-12 21:24:00,
2013-06-12 17:29:00,66.9,59.8,29.82,NE,48,0.0,2.0,78,0.00,,,0.00,WeatherCatV1.15B25,2013-06-12 21:29:00,
2013-06-12 17:34:00,66.5,59.8,29.82,NE,34,0.0,0.0,79,0.00,,,0.00,WeatherCatV1.15B25,2013-06-12 21:34:00,
2013-06-12 17:39:00,66.4,60.0,29.81,North,355,1.0,2.0,80,0.00,,,0.00,WeatherCatV1.15B25,2013-06-12 21:39:00,
2013-06-12 17:44:00,66.4,60.0,29.82,NNE,19,0.0,2.0,80,0.00,,,0.00,WeatherCatV1.15B25,2013-06-12 21:44:00,
2013-06-12 17:50:00,66.4,60.0,29.82,NNE,19,0.0,0.0,80,0.00,,,0.00,WeatherCatV1.15B25,2013-06-12 21:50:00,
2013-06-12 17:55:00,66.6,60.6,29.81,NNE,19,0.0,0.0,81,0.00,,,0.00,WeatherCatV1.15B25,2013-06-12 21:55:00,
2013-06-12 18:00:00,66.7,60.7,29.80,NNE,19,0.0,0.0,81,0.00,,,0.00,WeatherCatV1.15B25,2013-06-12 22:00:00,
2013-06-12 18:05:00,66.8,60.8,29.80,NNE,19,0.0,0.0,81,0.00,,,0.00,WeatherCatV1.15B25,2013-06-12 22:05:00,
2013-06-12 18:10:00,66.8,60.4,29.81,NNE,19,1.0,2.0,80,0.00,,,0.00,WeatherCatV1.15B25,2013-06-12 22:10:00,
2013-06-12 18:15:00,67.0,60.6,29.82,NNE,19,0.0,0.0,80,0.00,,,0.00,WeatherCatV1.15B25,2013-06-12 22:15:00,
2013-06-12 18:20:00,67.1,60.7,29.81,NNE,19,0.0,0.0,80,0.00,,,0.00,WeatherCatV1.15B25,2013-06-12 22:20:00,
2013-06-12 18:25:00,67.3,60.9,29.80,ENE,64,0.0,2.0,80,0.00,,,0.00,WeatherCatV1.15B25,2013-06-12 22:25:00,
2013-06-12 18:30:00,67.4,60.7,29.81,ENE,64,0.0,2.0,79,0.00,,,0.00,WeatherCatV1.15B25,2013-06-12 22:30:00,
2013-06-12 18:35:00,67.5,60.7,29.82,NNE,22,0.0,1.0,79,0.00,,,0.00,WeatherCatV1.15B25,2013-06-12 22:35:00,
2013-06-12 18:40:00,67.6,60.8,29.81,NNE,22,0.0,0.0,79,0.00,,,0.00,WeatherCatV1.15B25,2013-06-12 22:40:00,
2013-06-12 18:45:00,67.6,60.8,29.81,NNE,21,1.0,2.0,79,0.00,,,0.00,WeatherCatV1.15B25,2013-06-12 22:45:00,
2013-06-12 18:50:00,67.6,61.2,29.81,NNE,22,0.0,0.0,80,0.00,,,0.00,WeatherCatV1.15B25,2013-06-12 22:50:00,
2013-06-12 18:55:00,67.6,61.2,29.81,NNE,22,0.0,2.0,80,0.00,,,0.00,WeatherCatV1.15B25,2013-06-12 22:55:00,
2013-06-12 19:00:00,67.6,61.6,29.80,NNE,22,0.0,0.0,81,0.00,,,0.00,WeatherCatV1.15B25,2013-06-12 23:00:00,
2013-06-12 19:05:00,67.4,61.4,29.80,NNE,22,0.0,0.0,81,0.00,,,0.00,WeatherCatV1.15B25,2013-06-12 23:05:00,
2013-06-12 19:10:00,67.3,61.6,29.80,NNE,22,0.0,0.0,82,0.00,,,0.00,WeatherCatV1.15B25,2013-06-12 23:10:00,
2013-06-12 19:15:00,67.4,61.7,29.80,NNE,22,0.0,0.0,82,0.00,,,0.00,WeatherCatV1.15B25,2013-06-12 23:15:00,
2013-06-12 19:20:00,67.3,61.6,29.80,NNE,21,0.0,0.0,82,0.00,,,0.00,WeatherCatV1.15B25,2013-06-12 23:20:00,
2013-06-12 19:25:00,67.5,62.1,29.79,NNE,22,0.0,0.0,83,0.00,,,0.00,WeatherCatV1.15B25,2013-06-12 23:25:00,
2013-06-12 19:30:00,67.5,62.1,29.80,NNE,22,0.0,0.0,83,0.00,,,0.00,WeatherCatV1.15B25,2013-06-12 23:30:00,
2013-06-12 19:35:00,67.5,62.1,29.80,NNE,22,0.0,0.0,83,0.00,,,0.00,WeatherCatV1.15B25,2013-06-12 23:35:00,
2013-06-12 19:40:00,67.5,61.8,29.80,NNE,22,0.0,0.0,82,0.00,,,0.00,WeatherCatV1.15B25,2013-06-12 23:40:00,
2013-06-12 19:45:00,67.5,61.8,29.80,NNE,21,0.0,0.0,82,0.00,,,0.00,WeatherCatV1.15B25,2013-06-12 23:45:00,
2013-06-12 19:50:00,67.5,61.8,29.79,NNE,22,0.0,0.0,82,0.00,,,0.00,WeatherCatV1.15B25,2013-06-12 23:50:00,
2013-06-12 19:55:00,67.5,61.8,29.79,NNE,21,0.0,0.0,82,0.00,,,0.00,WeatherCatV1.15B25,2013-06-12 23:55:00,
2013-06-12 20:00:00,67.6,61.9,29.78,NNE,21,0.0,0.0,82,0.00,,,0.00,WeatherCatV1.15B25,2013-06-13 00:00:00,
2013-06-12 20:05:00,67.6,61.9,29.78,NNE,22,0.0,0.0,82,0.00,,,0.00,WeatherCatV1.15B25,2013-06-13 00:05:00,
2013-06-12 20:10:00,67.6,61.9,29.78,NNE,22,0.0,0.0,82,0.00,,,0.00,WeatherCatV1.15B25,2013-06-13 00:10:00,
2013-06-12 20:15:00,67.7,62.0,29.77,NNE,22,0.0,0.0,82,0.00,,,0.00,WeatherCatV1.15B25,2013-06-13 00:15:00,
2013-06-12 20:20:00,67.8,62.1,29.77,NNE,21,0.0,0.0,82,0.00,,,0.00,WeatherCatV1.15B25,2013-06-13 00:20:00,
2013-06-12 20:25:00,67.8,62.4,29.77,NNE,22,0.0,0.0,83,0.00,,,0.00,WeatherCatV1.15B25,2013-06-13 00:25:00,
2013-06-12 20:30:00,67.8,62.1,29.77,NNE,22,0.0,0.0,82,0.00,,,0.00,WeatherCatV1.15B25,2013-06-13 00:30:00,
2013-06-12 20:35:00,67.8,62.4,29.77,NNE,22,0.0,0.0,83,0.00,,,0.00,WeatherCatV1.15B25,2013-06-13 00:35:00,
2013-06-12 20:40:00,67.9,62.5,29.77,NNE,21,0.0,0.0,83,0.00,,,0.00,WeatherCatV1.15B25,2013-06-13 00:40:00,
2013-06-12 20:45:00,67.8,62.4,29.77,NNE,22,0.0,0.0,83,0.00,,,0.00,WeatherCatV1.15B25,2013-06-13 00:45:00,
2013-06-12 20:50:00,67.7,62.3,29.76,NNE,22,0.0,0.0,83,0.00,,,0.00,WeatherCatV1.15B25,2013-06-13 00:50:00,
2013-06-12 20:55:00,67.6,62.2,29.77,NNE,21,0.0,0.0,83,0.00,,,0.00,WeatherCatV1.15B25,2013-06-13 00:55:00,
2013-06-12 21:00:00,67.4,62.4,29.77,NNE,21,0.0,0.0,84,0.00,,,0.00,WeatherCatV1.15B25,2013-06-13 01:00:00,
2013-06-12 21:05:00,67.4,62.4,29.77,NNE,22,0.0,0.0,84,0.00,,,0.00,WeatherCatV1.15B25,2013-06-13 01:05:00,
2013-06-12 21:10:00,67.4,62.4,29.76,NNE,22,0.0,0.0,84,0.00,,,0.00,WeatherCatV1.15B25,2013-06-13 01:10:00,
2013-06-12 21:15:00,67.3,62.3,29.76,NNE,21,0.0,0.0,84,0.00,,,0.00,WeatherCatV1.15B25,2013-06-13 01:15:00,
2013-06-12 21:20:00,67.3,62.6,29.76,NNE,22,0.0,0.0,85,0.00,,,0.00,WeatherCatV1.15B25,2013-06-13 01:20:00,
2013-06-12 21:25:00,67.3,62.6,29.75,NNE,22,0.0,0.0,85,0.00,,,0.00,WeatherCatV1.15B25,2013-06-13 01:25:00,
2013-06-12 21:30:00,67.3,62.6,29.75,NNE,21,0.0,0.0,85,0.00,,,0.00,WeatherCatV1.15B25,2013-06-13 01:30:00,
2013-06-12 21:35:00,67.4,63.1,29.75,NNE,22,0.0,0.0,86,0.00,,,0.00,WeatherCatV1.15B25,2013-06-13 01:35:00,
2013-06-12 21:40:00,67.4,63.1,29.74,NNE,22,0.0,0.0,86,0.00,,,0.00,WeatherCatV1.15B25,2013-06-13 01:40:00,
2013-06-12 21:45:00,67.5,63.2,29.74,NNE,22,0.0,0.0,86,0.00,,,0.00,WeatherCatV1.15B25,2013-06-13 01:45:00,
2013-06-12 21:50:00,67.4,63.4,29.75,NNE,22,0.0,0.0,87,0.00,,,0.00,WeatherCatV1.15B25,2013-06-13 01:50:00,
2013-06-12 21:55:00,67.4,63.4,29.75,NNE,22,0.0,0.0,87,0.00,,,0.00,WeatherCatV1.15B25,2013-06-13 01:55:00,
2013-06-12 22:00:00,67.4,63.4,29.75,NNE,22,0.0,0.0,87,0.00,,,0.01,WeatherCatV1.15B25,2013-06-13 02:00:00,
2013-06-12 22:05:00,67.4,63.7,29.75,NNE,22,0.0,0.0,88,0.00,,,0.01,WeatherCatV1.15B25,2013-06-13 02:05:00,
2013-06-12 22:10:00,67.5,63.8,29.73,NNE,21,0.0,0.0,88,0.00,,,0.01,WeatherCatV1.15B25,2013-06-13 02:10:00,
2013-06-12 22:15:00,67.5,63.8,29.74,NNE,22,2.0,3.0,88,0.00,,,0.01,WeatherCatV1.15B25,2013-06-13 02:15:00,
2013-06-12 22:20:00,67.5,63.8,29.75,NNE,22,0.0,0.0,88,0.00,,,0.01,WeatherCatV1.15B25,2013-06-13 02:20:00,
2013-06-12 22:25:00,67.4,63.7,29.74,NNE,22,0.0,0.0,88,0.00,,,0.01,WeatherCatV1.15B25,2013-06-13 02:25:00,
2013-06-12 22:30:00,67.4,63.7,29.74,NNE,22,0.0,0.0,88,0.00,,,0.01,WeatherCatV1.15B25,2013-06-13 02:30:00,
2013-06-12 22:35:00,67.5,64.1,29.73,NNE,22,0.0,0.0,89,0.00,,,0.01,WeatherCatV1.15B25,2013-06-13 02:35:00,
2013-06-12 22:40:00,67.5,64.1,29.72,NNE,21,0.0,0.0,89,0.00,,,0.01,WeatherCatV1.15B25,2013-06-13 02:40:00,
2013-06-12 22:45:00,67.4,64.0,29.73,NNE,21,0.0,0.0,89,0.00,,,0.01,WeatherCatV1.15B25,2013-06-13 02:45:00,
2013-06-12 22:50:00,67.5,64.1,29.73,NNE,21,0.0,0.0,89,0.00,,,0.01,WeatherCatV1.15B25,2013-06-13 02:50:00,
2013-06-12 22:55:00,67.5,64.1,29.73,NNE,22,0.0,0.0,89,0.00,,,0.01,WeatherCatV1.15B25,2013-06-13 02:55:00,
2013-06-12 23:00:00,67.5,64.1,29.74,NNE,22,0.0,0.0,89,0.24,,,0.03,WeatherCatV1.15B25,2013-06-13 03:00:00,
2013-06-12 23:05:00,67.5,64.5,29.72,NNE,21,0.0,0.0,90,0.16,,,0.04,WeatherCatV1.15B25,2013-06-13 03:05:00,
2013-06-12 23:10:00,67.6,64.6,29.72,NNE,22,0.0,0.0,90,0.36,,,0.07,WeatherCatV1.15B25,2013-06-13 03:10:00,
2013-06-12 23:15:00,67.7,64.7,29.72,NNE,22,0.0,0.0,90,0.11,,,0.07,WeatherCatV1.15B25,2013-06-13 03:15:00,
2013-06-12 23:20:00,67.7,64.7,29.72,NNE,22,0.0,0.0,90,0.06,,,0.07,WeatherCatV1.15B25,2013-06-13 03:20:00,
2013-06-12 23:25:00,67.8,64.8,29.71,NNE,22,0.0,0.0,90,0.04,,,0.07,WeatherCatV1.15B25,2013-06-13 03:25:00,
2013-06-12 23:30:00,67.8,64.8,29.71,NNE,22,0.0,1.0,90,0.04,,,0.08,WeatherCatV1.15B25,2013-06-13 03:30:00,
2013-06-12 23:35:00,67.9,65.2,29.70,NNE,21,0.0,0.0,91,0.11,,,0.09,WeatherCatV1.15B25,2013-06-13 03:35:00,
2013-06-12 23:40:00,67.9,65.2,29.70,NNE,22,0.0,0.0,91,0.07,,,0.09,WeatherCatV1.15B25,2013-06-13 03:40:00,
2013-06-12 23:45:00,67.9,65.2,29.70,NNE,21,0.0,0.0,91,0.05,,,0.09,WeatherCatV1.15B25,2013-06-13 03:45:00,
2013-06-12 23:50:00,67.9,65.2,29.70,NNE,21,0.0,1.0,91,0.04,,,0.10,WeatherCatV1.15B25,2013-06-13 03:50:00,
2013-06-12 23:55:00,68.0,65.3,29.69,NNE,22,0.0,0.0,91,0.04,,,0.10,WeatherCatV1.15B25,2013-06-13 03:55:00,